Home > Time Zones > World Clock > Weather > Norway > Ski > Past weeks

Flag for Norway Weather past 2 weeks in Ski, Norway

Now
50 °F

Light rain. Fog.


Feels Like: 46 °F
Forecast: 56 / 76 °F
Wind: 12 mph from North

Location: Oslo / Fornebu

Current Time: Jul 3, 2015 at 10:45:33 PM

Latest Report: Jul 3, 2015 at 9:50 PM


Visibility: 0 mi

Pressure: 30.36 "Hg

Humidity: 100%

Dew point: 50 °F

Location of SkiLocation

Historic Weather in Ski — Graph

°F

Ski temperature yesterday

Maximum temperature yesterday: 59 °F (at 4:20 AM)
Minimum temperature yesterday: 54 °F (at 8:50 PM)
Average temperature yesterday: 58 °F

Past Weeks' High & Low Weather Summary

 TemperatureHumidityPressure
High59 °F (Jul 2, 4:20 AM)100% (Jun 19, 12:20 AM)30.36 "Hg (Jun 19, 12:20 AM)
Low46 °F (Jun 19, 4:50 AM)63% (Jun 24, 2:50 PM)29.80 "Hg (Jun 22, 3:20 AM)
Average52 °F88%29.98 "Hg
* Reported Jun 18 9:20 PM — Jul 3 9:20 PM, Ski, Weather by CustomWeather, © 2015

Note: Actual official high and low records may vary slightly from our data, if they occured in-between our weather recording intervals... More about our weather records

Advertising

Ski weather history for previous 24 hours

 ConditionsComfort  
Time TempWeatherWind HumidityBarometerVisibility
9:20 PM
Fri, Jul 3
50 °FLight rain. Fog.12 mph100%30.36 "Hg1 mi
8:50 PM50 °FLight rain. Fog.12 mph100%30.36 "Hg1 mi
8:20 PM50 °FFog.12 mph100%30.36 "Hg2 mi
4:50 PM54 °FLow clouds.17 mph94%30.30 "HgN/A
4:20 PM54 °FLow clouds.20 mph94%30.27 "HgN/A
3:50 PM54 °FLow clouds.21 mph88%30.27 "HgN/A
3:20 PM55 °FPartly sunny.20 mph82%30.27 "HgN/A
2:50 PM55 °FPartly sunny.22 mph82%30.24 "HgN/A
2:20 PM55 °FPartly sunny.23 mph82%30.24 "HgN/A
1:50 PM54 °FLow clouds.22 mph88%30.21 "HgN/A
1:20 PM54 °FPartly sunny.24 mph94%30.21 "HgN/A
12:50 PM55 °FScattered clouds.16 mph88%30.18 "HgN/A
12:20 PM55 °FPartly sunny.18 mph88%30.18 "HgN/A
11:50 AM54 °FLow clouds.18 mph94%30.15 "HgN/A
11:20 AM54 °FLow clouds.21 mph94%30.15 "HgN/A
10:50 AM54 °FPartly sunny.13 mph94%30.12 "HgN/A
10:20 AM55 °FFog.6 mph94%30.12 "Hg1 mi
9:50 AM55 °FFog.6 mph94%30.12 "Hg1 mi
9:20 AM54 °FFog.7 mph100%30.09 "Hg0 mi
8:50 AM54 °FFog.8 mph100%30.09 "Hg0 mi
8:20 AM55 °FFog.5 mph94%30.09 "Hg0 mi
7:50 AM55 °FFog.10 mph94%30.09 "Hg2 mi
7:20 AM55 °FFog.8 mph94%30.07 "Hg2 mi
6:50 AM55 °FPartly sunny.No wind94%30.07 "Hg3 mi
6:20 AM54 °FFog.3 mph100%30.07 "Hg2 mi
5:50 AM54 °FPartly sunny.13 mph100%30.07 "Hg3 mi
5:20 AM55 °FOvercast.21 mph94%30.07 "Hg4 mi
4:50 AM54 °FPartly cloudy.18 mph100%30.07 "Hg3 mi
4:20 AM54 °FFog.25 mph100%30.07 "Hg2 mi
3:50 AM54 °FFog.22 mph100%30.07 "Hg3 mi
3:20 AM54 °FPassing clouds.20 mph100%30.07 "Hg4 mi
2:50 AM54 °FPassing clouds.13 mph100%30.07 "Hg4 mi
2:20 AM54 °FPassing clouds.5 mph100%30.04 "Hg3 mi
1:50 AM54 °FFog.10 mph100%30.07 "Hg2 mi
1:20 AM54 °FPassing clouds.9 mph100%30.07 "Hg3 mi
12:50 AM54 °FPassing clouds.13 mph100%30.07 "Hg3 mi
12:20 AM54 °FFog.16 mph100%30.07 "Hg2 mi
11:50 PM
Thu, Jul 2
54 °FFog.16 mph100%30.07 "Hg2 mi
11:20 PM54 °FFog.24 mph100%30.07 "Hg2 mi
10:50 PM54 °FFog.30 mph100%30.07 "Hg2 mi
10:20 PM54 °FFog.29 mph100%30.07 "Hg3 mi
Weather by CustomWeather, © 2015

See weather overviewHow to use our weather pages